« Back
NWS Peachtree City, Ga » Text Product » GA Regional Weather Roundup


Printer-friendly Version
Current Version              Previous Versions:   1  2  3  4  5  6  7  8  9  

Regional Weather Roundup

733
ASUS42 KFFC 040303
RWRGA
WEATHER ROUNDUP FOR GEORGIA
NATIONAL WEATHER SERVICE PEACHTREE CITY GA
1100 PM EDT THU SEP 03 2015

NOTE: "FAIR" INDICATES FEW OR NO CLOUDS BELOW 12,000 FEET WITH NO
SIGNIFICANT WEATHER AND/OR OBSTRUCTIONS TO VISIBILITY.

* = USE WITH CAUTION. THE STATIONS MARKED WITH AN ASTERISK MAY NOT
REPORT WEATHER SUCH AS PRECIPITATION, FOG, OR THUNDER AND ARE NOT
QUALITY CONTROLLED BY NWS.

THE REMARK "TC" DENOTES TEMPERATURE READING IN DEGREES CELSIUS.

GAZ001>058-040400-
NORTH GEORGIA

CITY           SKY/WX    TMP DP  RH WIND       PRES   REMARKS
ATLANTA        MOCLDY    75  66  73 NW5       29.98R
ATHENS         MOCLDY    77  70  79 CALM      29.96S
CHAMBLEE       MOCLDY    72  70  93 CALM      29.99R
PEACHTREE CITY PTCLDY    70  69  97 CALM      29.99R
ROME           CLEAR     71  68  90 CALM      29.97R
WEST ATLANTA   MOCLDY    71  69  93 CALM      29.98R
GAINESVILLE    PTCLDY    75  67  76 NW3       30.01S
CARTERSVILLE   CLEAR     68  67  96 CALM      29.99R


CITY           SKY/WX    TMP DP  RH WIND       PRES   REMARKS
DALTON*        CLEAR     70  70 100 CALM      29.98R
MARIETTA       MOCLDY    71  70  96 W2        29.99R
KENNESAW*      MOCLDY    72  68  88 CALM      30.00R
BLAIRSVILLE*     N/A     68  60  75 CALM      30.05R
$$

GAZ059>098-102>109-040400-
CENTRAL GEORGIA

CITY           SKY/WX    TMP DP  RH WIND       PRES   REMARKS
AUGUSTA-BUSH   MOCLDY    75  75 100 CALM      29.91S
AUGUSTA-DANIEL MOCLDY    82  73  74 CALM      29.94R
COLUMBUS       CLEAR     80  70  71 NW5       29.94R
MACON          CLEAR     75  73  93 CALM      29.95R
ROBINS AFB     CLEAR     76  75  96 CALM      29.94R


CITY           SKY/WX    TMP DP  RH WIND       PRES   REMARKS
LAGRANGE*      CLEAR     76  76 100 CALM      29.98R
MILLEDGEVILLE* CLEAR     77  73  88 CALM      29.94S
$$

GAZ099>101-110>166-040400-
SOUTH GEORGIA

CITY           SKY/WX    TMP DP  RH WIND       PRES   REMARKS
SAVANNAH       CLOUDY    80  76  87 SE5       29.93R
VALDOSTA       MOCLDY    76  75  97 CALM      29.95R
ALMA           CLEAR     76  76 100 CALM      29.94R FOG
ST SIMONS      CLOUDY    78  77  96 SW3       29.93R
FT STEWART     CLOUDY    79  77  93 CALM      29.91R
ALBANY         CLEAR     79  72  79 SW6       29.96R
HUNTER AFB     MOCLDY    79  79 100 CALM      29.91R
MOODY AFB      MOCLDY    78  73  84 SW2       29.95R
BRUNSWICK      CLOUDY    77  75  94 CALM      29.95R


CITY           SKY/WX    TMP DP  RH WIND       PRES   REMARKS
BAINBRIDGE*    CLOUDY    77  72  83 CALM      29.96R
MOULTRIE*      CLEAR     79  73  83 CALM      29.97R
VIDALIA*       MOCLDY    77  75  94 CALM      29.94R
WAYCROSS*      CLEAR     81  80  99 CALM      29.94R HX  91
DOUGLAS*       CLEAR     79  77  94 CALM      29.96R
$$



USA.gov is the U.S. government's official web portal to all federal, state and local government web resources and services.